Time,TemperatureF,DewpointF,PressureIn,WindDirection,WindDirectionDegrees,WindSpeedMPH,WindSpeedGustMPH,Humidity,HourlyPrecipIn,Conditions,Clouds,dailyrainin,SolarRadiationWatts/m^2,SoftwareType,DateUTC
2013-05-13 00:02:00,72.0,65.0,-100.00,West,274,4.0,-999.0,77,0.00,,,-99.99,0.000000,,2013-05-13 04:02:00,
2013-05-13 00:12:00,72.0,65.0,-100.00,West,274,4.0,-999.0,77,0.00,,,-99.99,0.000000,,2013-05-13 04:12:00,
2013-05-13 00:23:00,72.0,65.0,-100.00,West,277,4.0,-999.0,79,0.00,,,-99.99,0.000000,,2013-05-13 04:23:00,
2013-05-13 00:32:00,71.0,66.0,-100.00,West,281,4.0,-999.0,82,0.00,,,-99.99,0.000000,,2013-05-13 04:32:00,
2013-05-13 00:42:00,71.0,66.0,-100.00,West,275,3.0,-999.0,84,0.00,,,-99.99,0.000000,,2013-05-13 04:42:00,
2013-05-13 00:53:00,71.0,66.0,-100.00,West,275,3.0,-999.0,84,0.00,,,-99.99,0.000000,,2013-05-13 04:53:00,
2013-05-13 01:02:00,71.0,66.0,-100.00,West,268,3.0,-999.0,85,0.00,,,-99.99,0.000000,,2013-05-13 05:02:00,
2013-05-13 01:12:00,70.0,66.0,-100.00,West,280,2.0,-999.0,86,0.00,,,-99.99,0.000000,,2013-05-13 05:12:00,
2013-05-13 01:22:00,70.0,66.0,-100.00,West,280,2.0,-999.0,86,0.00,,,-99.99,0.000000,,2013-05-13 05:22:00,
2013-05-13 01:32:00,70.0,66.0,-100.00,West,280,2.0,-999.0,86,0.00,,,-99.99,0.000000,,2013-05-13 05:32:00,
2013-05-13 01:42:00,70.0,66.0,-100.00,WNW,283,2.0,-999.0,88,0.00,,,-99.99,0.000000,,2013-05-13 05:42:00,
2013-05-13 01:52:00,70.0,66.0,-100.00,WNW,283,2.0,-999.0,88,0.00,,,-99.99,0.000000,,2013-05-13 05:52:00,
2013-05-13 02:01:00,70.0,66.0,-100.00,West,270,3.0,-999.0,88,0.00,,,-99.99,0.000000,,2013-05-13 06:01:00,
2013-05-13 02:12:00,70.0,66.0,-100.00,West,273,2.0,-999.0,89,0.00,,,-99.99,0.000000,,2013-05-13 06:12:00,
2013-05-13 02:21:00,70.0,66.0,-100.00,West,273,2.0,-999.0,89,0.00,,,-99.99,0.000000,,2013-05-13 06:21:00,
2013-05-13 02:32:00,69.0,66.0,-100.00,West,277,3.0,-999.0,90,0.00,,,-99.99,0.000000,,2013-05-13 06:32:00,
2013-05-13 02:42:00,69.0,67.0,-100.00,WNW,284,3.0,-999.0,90,0.00,,,-99.99,0.000000,,2013-05-13 06:42:00,
2013-05-13 02:52:00,69.0,67.0,-100.00,WNW,284,3.0,-999.0,90,0.00,,,-99.99,0.000000,,2013-05-13 06:52:00,
2013-05-13 03:01:00,69.0,67.0,-100.00,WNW,289,3.0,-999.0,91,0.00,,,-99.99,0.000000,,2013-05-13 07:01:00,
2013-05-13 03:11:00,69.0,67.0,-100.00,WNW,294,3.0,-999.0,91,0.00,,,-99.99,0.000000,,2013-05-13 07:11:00,
2013-05-13 03:22:00,69.0,67.0,-100.00,WNW,294,3.0,-999.0,91,0.00,,,-99.99,0.000000,,2013-05-13 07:22:00,
2013-05-13 03:31:00,69.0,67.0,-100.00,NW,308,3.0,-999.0,92,0.00,,,-99.99,0.000000,,2013-05-13 07:31:00,
2013-05-13 03:42:00,69.0,67.0,-100.00,NW,322,2.0,-999.0,93,0.00,,,-99.99,0.000000,,2013-05-13 07:42:00,
2013-05-13 03:52:00,69.0,67.0,-100.00,NW,322,2.0,-999.0,93,0.00,,,-99.99,0.000000,,2013-05-13 07:52:00,
2013-05-13 04:02:00,69.0,67.0,-100.00,NW,322,2.0,-999.0,93,0.00,,,-99.99,0.000000,,2013-05-13 08:02:00,
2013-05-13 04:11:00,69.0,67.0,-100.00,NNW,333,2.0,-999.0,93,0.00,,,-99.99,0.000000,,2013-05-13 08:11:00,
2013-05-13 04:21:00,69.0,67.0,-100.00,NNW,333,2.0,-999.0,93,0.00,,,-99.99,0.000000,,2013-05-13 08:21:00,
2013-05-13 04:31:00,69.0,67.0,-100.00,NNW,335,3.0,-999.0,94,0.00,,,-99.99,0.000000,,2013-05-13 08:31:00,
2013-05-13 04:42:00,68.0,67.0,-100.00,NNW,328,2.0,-999.0,94,0.00,,,-99.99,0.000000,,2013-05-13 08:42:00,
2013-05-13 04:52:00,68.0,67.0,-100.00,NNW,328,2.0,-999.0,94,0.00,,,-99.99,0.000000,,2013-05-13 08:52:00,
2013-05-13 05:01:00,68.0,67.0,-100.00,NW,324,3.0,-999.0,94,0.00,,,-99.99,0.000000,,2013-05-13 09:01:00,
2013-05-13 05:11:00,68.0,67.0,-100.00,NW,324,3.0,-999.0,94,0.00,,,-99.99,0.000000,,2013-05-13 09:11:00,
2013-05-13 05:21:00,68.0,66.0,-100.00,NNW,335,4.0,-999.0,95,0.00,,,-99.99,0.000000,,2013-05-13 09:21:00,
2013-05-13 05:33:00,68.0,66.0,-100.00,NNW,333,3.0,-999.0,95,0.00,,,-99.99,0.000000,,2013-05-13 09:33:00,
2013-05-13 05:42:00,68.0,66.0,-100.00,NNW,333,3.0,-999.0,95,0.00,,,-99.99,0.000000,,2013-05-13 09:42:00,
2013-05-13 05:52:00,67.0,66.0,-100.00,NNW,329,3.0,-999.0,95,0.00,,,-99.99,0.000000,,2013-05-13 09:52:00,
2013-05-13 06:03:00,67.0,66.0,-100.00,NW,322,3.0,-999.0,95,0.00,,,-99.99,0.000000,,2013-05-13 10:03:00,
2013-05-13 06:12:00,67.0,66.0,-100.00,NNW,330,3.0,-999.0,95,0.00,,,-99.99,0.000000,,2013-05-13 10:12:00,
2013-05-13 06:22:00,67.0,66.0,-100.00,NNW,330,3.0,-999.0,95,0.00,,,-99.99,0.000000,,2013-05-13 10:22:00,
2013-05-13 06:33:00,67.0,65.0,-100.00,NNW,333,4.0,-999.0,94,0.00,,,-99.99,0.000000,,2013-05-13 10:33:00,
2013-05-13 06:42:00,67.0,65.0,-100.00,NNW,338,5.0,-999.0,91,0.00,,,-99.99,0.300000,,2013-05-13 10:42:00,
2013-05-13 06:52:00,67.0,65.0,-100.00,NNW,338,5.0,-999.0,91,0.00,,,-99.99,0.300000,,2013-05-13 10:52:00,
2013-05-13 07:02:00,67.0,64.0,-100.00,NNW,345,6.0,-999.0,89,0.00,,,-99.99,3.000000,,2013-05-13 11:02:00,
2013-05-13 07:12:00,67.0,63.0,-100.00,NNW,343,5.0,-999.0,87,0.00,,,-99.99,10.100000,,2013-05-13 11:12:00,
2013-05-13 07:21:00,67.0,63.0,-100.00,NNW,343,5.0,-999.0,87,0.00,,,-99.99,10.100000,,2013-05-13 11:21:00,
2013-05-13 07:32:00,67.0,63.0,-100.00,NNW,343,4.0,-999.0,86,0.00,,,-99.99,15.900000,,2013-05-13 11:32:00,
2013-05-13 07:42:00,67.0,63.0,-100.00,NNW,343,4.0,-999.0,86,0.00,,,-99.99,15.900000,,2013-05-13 11:42:00,
2013-05-13 07:52:00,67.0,62.0,-100.00,NNW,342,5.0,-999.0,84,0.00,,,-99.99,18.299999,,2013-05-13 11:52:00,
2013-05-13 08:01:00,67.0,62.0,-100.00,NNW,345,5.0,-999.0,82,0.00,,,-99.99,24.500000,,2013-05-13 12:01:00,
2013-05-13 08:12:00,67.0,61.0,-100.00,NNW,343,5.0,-999.0,80,0.00,,,-99.99,32.200001,,2013-05-13 12:12:00,
2013-05-13 08:21:00,67.0,61.0,-100.00,NNW,343,5.0,-999.0,80,0.00,,,-99.99,32.200001,,2013-05-13 12:21:00,
2013-05-13 08:32:00,67.0,61.0,-100.00,NNW,342,5.0,-999.0,78,0.00,,,-99.99,34.700001,,2013-05-13 12:32:00,
2013-05-13 08:42:00,67.0,60.0,-100.00,NNW,342,6.0,-999.0,77,0.00,,,-99.99,33.200001,,2013-05-13 12:42:00,
2013-05-13 08:52:00,67.0,60.0,-100.00,NNW,342,6.0,-999.0,77,0.00,,,-99.99,33.200001,,2013-05-13 12:52:00,
2013-05-13 09:01:00,67.0,60.0,-100.00,NNW,343,6.0,-999.0,76,0.00,,,-99.99,38.299999,,2013-05-13 13:01:00,
2013-05-13 09:11:00,67.0,59.0,-100.00,NNW,344,7.0,-999.0,75,0.00,,,-99.99,52.200001,,2013-05-13 13:11:00,
2013-05-13 09:21:00,67.0,59.0,-100.00,NNW,344,7.0,-999.0,75,0.00,,,-99.99,52.200001,,2013-05-13 13:21:00,
2013-05-13 09:31:00,67.0,59.0,-100.00,NNW,342,6.0,-999.0,73,0.00,,,-99.99,94.199997,,2013-05-13 13:31:00,
2013-05-13 09:42:00,68.0,58.0,-100.00,NNW,343,6.0,-999.0,72,0.00,,,-99.99,130.199997,,2013-05-13 13:42:00,
2013-05-13 09:52:00,68.0,58.0,-100.00,NNW,343,6.0,-999.0,72,0.00,,,-99.99,130.199997,,2013-05-13 13:52:00,
2013-05-13 10:02:00,68.0,58.0,-100.00,NNW,343,7.0,-999.0,69,0.00,,,-99.99,257.299988,,2013-05-13 14:02:00,
2013-05-13 10:11:00,69.0,57.0,-100.00,NNW,345,8.0,-999.0,66,0.00,,,-99.99,271.700012,,2013-05-13 14:11:00,
2013-05-13 10:22:00,69.0,57.0,-100.00,NNW,345,8.0,-999.0,66,0.00,,,-99.99,271.700012,,2013-05-13 14:22:00,
2013-05-13 10:32:00,69.0,56.0,-100.00,NNW,347,9.0,-999.0,64,0.00,,,-99.99,235.300003,,2013-05-13 14:32:00,
2013-05-13 10:41:00,69.0,55.0,-100.00,North,350,8.0,-999.0,60,0.00,,,-99.99,259.899994,,2013-05-13 14:41:00,
2013-05-13 10:52:00,69.0,55.0,-100.00,North,350,8.0,-999.0,60,0.00,,,-99.99,259.899994,,2013-05-13 14:52:00,
2013-05-13 11:01:00,69.0,53.0,-100.00,NNW,343,7.0,-999.0,57,0.00,,,-99.99,216.600006,,2013-05-13 15:01:00,
2013-05-13 11:11:00,69.0,52.0,-100.00,NNW,344,7.0,-999.0,56,0.00,,,-99.99,244.399994,,2013-05-13 15:11:00,
2013-05-13 11:21:00,69.0,52.0,-100.00,NNW,344,7.0,-999.0,56,0.00,,,-99.99,244.399994,,2013-05-13 15:21:00,
2013-05-13 11:32:00,70.0,52.0,-100.00,North,355,7.0,-999.0,53,0.00,,,-99.99,447.700012,,2013-05-13 15:32:00,
2013-05-13 11:42:00,70.0,52.0,-100.00,North,355,7.0,-999.0,53,0.00,,,-99.99,447.700012,,2013-05-13 15:42:00,
2013-05-13 11:53:00,72.0,52.0,-100.00,North,350,7.0,-999.0,49,0.00,,,-99.99,671.799988,,2013-05-13 15:53:00,
2013-05-13 12:03:00,73.0,51.0,-100.00,North,351,7.0,-999.0,45,0.00,,,-99.99,709.000000,,2013-05-13 16:03:00,
2013-05-13 12:12:00,75.0,50.0,-100.00,North,351,5.0,-999.0,41,0.00,,,-99.99,797.000000,,2013-05-13 16:12:00,
2013-05-13 12:21:00,75.0,50.0,-100.00,North,351,5.0,-999.0,41,0.00,,,-99.99,797.000000,,2013-05-13 16:21:00,
2013-05-13 12:33:00,76.0,50.0,-100.00,NNW,348,5.0,-999.0,39,0.00,,,-99.99,873.000000,,2013-05-13 16:33:00,
2013-05-13 12:42:00,77.0,50.0,-100.00,North,1,5.0,-999.0,38,0.00,,,-99.99,899.000000,,2013-05-13 16:42:00,
2013-05-13 12:53:00,77.0,50.0,-100.00,North,1,5.0,-999.0,38,0.00,,,-99.99,899.000000,,2013-05-13 16:53:00,
2013-05-13 13:02:00,77.0,50.0,-100.00,NNW,343,5.0,-999.0,38,0.00,,,-99.99,839.000000,,2013-05-13 17:02:00,
2013-05-13 13:12:00,78.0,50.0,-100.00,NNW,346,5.0,-999.0,37,0.00,,,-99.99,915.000000,,2013-05-13 17:12:00,
2013-05-13 13:21:00,78.0,50.0,-100.00,NNW,346,5.0,-999.0,37,0.00,,,-99.99,915.000000,,2013-05-13 17:21:00,
2013-05-13 13:32:00,79.0,49.0,-100.00,NW,319,5.0,-999.0,35,0.00,,,-99.99,942.000000,,2013-05-13 17:32:00,
2013-05-13 13:42:00,79.0,50.0,-100.00,NW,325,5.0,-999.0,36,0.00,,,-99.99,868.000000,,2013-05-13 17:42:00,
2013-05-13 13:54:00,79.0,50.0,-100.00,NW,325,5.0,-999.0,36,0.00,,,-99.99,868.000000,,2013-05-13 17:54:00,
2013-05-13 14:03:00,81.0,52.0,-100.00,NW,307,5.0,-999.0,36,0.00,,,-99.99,980.000000,,2013-05-13 18:03:00,
2013-05-13 14:13:00,81.0,52.0,-100.00,WNW,300,6.0,-999.0,36,0.00,,,-99.99,959.000000,,2013-05-13 18:13:00,
2013-05-13 14:23:00,81.0,52.0,-100.00,WNW,300,6.0,-999.0,36,0.00,,,-99.99,959.000000,,2013-05-13 18:23:00,
2013-05-13 14:32:00,81.0,52.0,-100.00,WNW,303,8.0,-999.0,36,0.00,,,-99.99,926.000000,,2013-05-13 18:32:00,
2013-05-13 14:42:00,81.0,51.0,-100.00,West,280,5.0,-999.0,35,0.00,,,-99.99,893.000000,,2013-05-13 18:42:00,
2013-05-13 14:52:00,81.0,51.0,-100.00,West,280,5.0,-999.0,35,0.00,,,-99.99,893.000000,,2013-05-13 18:52:00,
2013-05-13 15:01:00,81.0,51.0,-100.00,WNW,296,6.0,-999.0,35,0.00,,,-99.99,829.000000,,2013-05-13 19:01:00,
2013-05-13 15:12:00,81.0,51.0,-100.00,West,276,7.0,-999.0,34,0.00,,,-99.99,807.000000,,2013-05-13 19:12:00,
2013-05-13 15:21:00,81.0,51.0,-100.00,West,276,7.0,-999.0,34,0.00,,,-99.99,807.000000,,2013-05-13 19:21:00,
2013-05-13 15:32:00,81.0,51.0,-100.00,West,269,6.0,-999.0,34,0.00,,,-99.99,767.000000,,2013-05-13 19:32:00,
2013-05-13 15:44:00,81.0,51.0,-100.00,West,272,6.0,-999.0,35,0.00,,,-99.99,783.000000,,2013-05-13 19:44:00,
2013-05-13 15:53:00,81.0,51.0,-100.00,West,272,6.0,-999.0,35,0.00,,,-99.99,783.000000,,2013-05-13 19:53:00,
2013-05-13 16:02:00,81.0,52.0,-100.00,WNW,297,7.0,-999.0,36,0.00,,,-99.99,728.000000,,2013-05-13 20:02:00,
2013-05-13 16:11:00,81.0,52.0,-100.00,WNW,297,7.0,-999.0,36,0.00,,,-99.99,728.000000,,2013-05-13 20:11:00,
2013-05-13 16:23:00,81.0,52.0,-100.00,NW,311,6.0,-999.0,36,0.00,,,-99.99,645.000000,,2013-05-13 20:23:00,
2013-05-13 16:33:00,81.0,52.0,-100.00,NW,306,6.0,-999.0,36,0.00,,,-99.99,530.599976,,2013-05-13 20:33:00,
2013-05-13 16:44:00,81.0,51.0,-100.00,WNW,297,5.0,-999.0,35,0.00,,,-99.99,511.700012,,2013-05-13 20:44:00,
2013-05-13 16:53:00,81.0,51.0,-100.00,WNW,297,5.0,-999.0,35,0.00,,,-99.99,511.700012,,2013-05-13 20:53:00,
2013-05-13 17:03:00,82.0,50.0,-100.00,NW,318,6.0,-999.0,32,0.00,,,-99.99,670.599976,,2013-05-13 21:03:00,
2013-05-13 17:14:00,82.0,48.0,-100.00,NW,310,6.0,-999.0,31,0.00,,,-99.99,604.000000,,2013-05-13 21:14:00,
2013-05-13 17:23:00,82.0,48.0,-100.00,NW,310,6.0,-999.0,31,0.00,,,-99.99,604.000000,,2013-05-13 21:23:00,
2013-05-13 17:33:00,83.0,49.0,-100.00,NW,319,4.0,-999.0,30,0.00,,,-99.99,586.799988,,2013-05-13 21:33:00,
2013-05-13 17:43:00,82.0,48.0,-100.00,NW,321,6.0,-999.0,30,0.00,,,-99.99,395.299988,,2013-05-13 21:43:00,
2013-05-13 17:53:00,82.0,48.0,-100.00,NW,321,6.0,-999.0,30,0.00,,,-99.99,395.299988,,2013-05-13 21:53:00,
2013-05-13 18:02:00,81.0,48.0,-100.00,NNW,337,5.0,-999.0,31,0.00,,,-99.99,308.700012,,2013-05-13 22:02:00,
2013-05-13 18:12:00,79.0,46.0,-100.00,NNW,342,7.0,-999.0,31,0.00,,,-99.99,196.199997,,2013-05-13 22:12:00,
2013-05-13 18:23:00,79.0,46.0,-100.00,NNW,342,7.0,-999.0,31,0.00,,,-99.99,196.199997,,2013-05-13 22:23:00,
2013-05-13 18:32:00,79.0,46.0,-100.00,NNW,336,6.0,-999.0,31,0.00,,,-99.99,204.000000,,2013-05-13 22:32:00,
2013-05-13 18:43:00,78.0,46.0,-100.00,NNW,337,6.0,-999.0,31,0.00,,,-99.99,163.300003,,2013-05-13 22:43:00,
2013-05-13 18:52:00,78.0,46.0,-100.00,NNW,337,6.0,-999.0,31,0.00,,,-99.99,163.300003,,2013-05-13 22:52:00,
2013-05-13 19:02:00,78.0,45.0,-100.00,NNW,338,6.0,-999.0,31,0.00,,,-99.99,149.000000,,2013-05-13 23:02:00,
2013-05-13 19:13:00,77.0,45.0,-100.00,NNW,339,6.0,-999.0,32,0.00,,,-99.99,109.099998,,2013-05-13 23:13:00,
2013-05-13 19:23:00,77.0,45.0,-100.00,NNW,339,6.0,-999.0,32,0.00,,,-99.99,109.099998,,2013-05-13 23:23:00,
2013-05-13 19:33:00,76.0,46.0,-100.00,NNW,340,5.0,-999.0,33,0.00,,,-99.99,80.199997,,2013-05-13 23:33:00,
2013-05-13 19:42:00,75.0,47.0,-100.00,NNW,348,6.0,-999.0,35,0.00,,,-99.99,57.599998,,2013-05-13 23:42:00,
2013-05-13 19:54:00,75.0,47.0,-100.00,NNW,348,6.0,-999.0,35,0.00,,,-99.99,57.599998,,2013-05-13 23:54:00,
2013-05-13 20:02:00,74.0,47.0,-100.00,NNW,346,6.0,-999.0,37,0.00,,,-99.99,36.799999,,2013-05-14 00:02:00,
2013-05-13 20:13:00,73.0,46.0,-100.00,NNW,343,5.0,-999.0,37,0.00,,,-99.99,18.100000,,2013-05-14 00:13:00,
2013-05-13 20:22:00,73.0,46.0,-100.00,NNW,343,5.0,-999.0,37,0.00,,,-99.99,18.100000,,2013-05-14 00:22:00,
2013-05-13 20:31:00,72.0,46.0,-100.00,NNW,343,5.0,-999.0,39,0.00,,,-99.99,6.800000,,2013-05-14 00:31:00,
2013-05-13 20:42:00,72.0,45.0,-100.00,NNW,336,5.0,-999.0,38,0.00,,,-99.99,3.400000,,2013-05-14 00:42:00,
2013-05-13 20:52:00,72.0,45.0,-100.00,NNW,336,5.0,-999.0,38,0.00,,,-99.99,3.400000,,2013-05-14 00:52:00,
2013-05-13 21:02:00,71.0,45.0,-100.00,NNW,335,3.0,-999.0,40,0.00,,,-99.99,0.000000,,2013-05-14 01:02:00,
2013-05-13 21:11:00,69.0,45.0,-100.00,NNW,332,3.0,-999.0,42,0.00,,,-99.99,0.000000,,2013-05-14 01:11:00,
2013-05-13 21:21:00,69.0,45.0,-100.00,NNW,332,3.0,-999.0,42,0.00,,,-99.99,0.000000,,2013-05-14 01:21:00,
2013-05-13 21:32:00,68.0,45.0,-100.00,NNW,336,2.0,-999.0,44,0.00,,,-99.99,0.000000,,2013-05-14 01:32:00,
2013-05-13 21:43:00,67.0,46.0,-100.00,NNW,340,3.0,-999.0,46,0.00,,,-99.99,0.000000,,2013-05-14 01:43:00,
2013-05-13 21:53:00,67.0,46.0,-100.00,NNW,340,3.0,-999.0,46,0.00,,,-99.99,0.000000,,2013-05-14 01:53:00,
2013-05-13 22:02:00,67.0,46.0,-100.00,NNW,340,3.0,-999.0,46,0.00,,,-99.99,0.000000,,2013-05-14 02:02:00,
2013-05-13 22:12:00,66.0,47.0,-100.00,North,349,3.0,-999.0,50,0.00,,,-99.99,0.000000,,2013-05-14 02:12:00,
2013-05-13 22:22:00,66.0,47.0,-100.00,North,349,3.0,-999.0,50,0.00,,,-99.99,0.000000,,2013-05-14 02:22:00,
2013-05-13 22:32:00,65.0,48.0,-100.00,NNW,339,2.0,-999.0,52,0.00,,,-99.99,0.000000,,2013-05-14 02:32:00,
2013-05-13 22:42:00,64.0,48.0,-100.00,North,354,2.0,-999.0,54,0.00,,,-99.99,0.000000,,2013-05-14 02:42:00,
2013-05-13 22:52:00,64.0,48.0,-100.00,North,354,2.0,-999.0,54,0.00,,,-99.99,0.000000,,2013-05-14 02:52:00,
2013-05-13 23:01:00,64.0,48.0,-100.00,North,354,2.0,-999.0,54,0.00,,,-99.99,0.000000,,2013-05-14 03:01:00,
2013-05-13 23:11:00,65.0,46.0,-100.00,North,2,4.0,-999.0,50,0.00,,,-99.99,0.000000,,2013-05-14 03:11:00,
2013-05-13 23:21:00,65.0,46.0,-100.00,North,2,4.0,-999.0,50,0.00,,,-99.99,0.000000,,2013-05-14 03:21:00,
2013-05-13 23:33:00,64.0,46.0,-100.00,NNE,13,3.0,-999.0,52,0.00,,,-99.99,0.000000,,2013-05-14 03:33:00,
2013-05-13 23:42:00,62.0,47.0,-100.00,North,3,3.0,-999.0,57,0.00,,,-99.99,0.000000,,2013-05-14 03:42:00,
2013-05-13 23:53:00,62.0,47.0,-100.00,North,3,3.0,-999.0,57,0.00,,,-99.99,0.000000,,2013-05-14 03:53:00,